05.05.2024;03:00;57
05.05.2024;02:00;63
05.05.2024;01:00;62
05.05.2024;00:00;51
04.05.2024;23:00;51
04.05.2024;22:00;57
04.05.2024;21:00;79
04.05.2024;20:00;89
04.05.2024;19:00;93
04.05.2024;18:00;92
04.05.2024;17:00;92
04.05.2024;16:00;89
04.05.2024;15:00;89
04.05.2024;14:00;90
04.05.2024;13:00;84
04.05.2024;12:00;82
04.05.2024;11:00;76
04.05.2024;10:00;41
04.05.2024;09:00;19
04.05.2024;08:00;8
04.05.2024;07:00;4
04.05.2024;06:00;9
04.05.2024;05:00;17
04.05.2024;04:00;20
04.05.2024;03:00;20
04.05.2024;02:00;15
04.05.2024;01:00;38
04.05.2024;00:00;42
03.05.2024;23:00;41
03.05.2024;22:00;50
03.05.2024;21:00;58
03.05.2024;20:00;61
03.05.2024;19:00;66
03.05.2024;18:00;69
03.05.2024;17:00;75
03.05.2024;16:00;75
03.05.2024;15:00;78
03.05.2024;14:00;78
03.05.2024;13:00;73
03.05.2024;12:00;78
03.05.2024;11:00;72
03.05.2024;10:00;68
03.05.2024;09:00;59
03.05.2024;08:00;43
03.05.2024;07:00;43
03.05.2024;06:00;48
03.05.2024;05:00;48
03.05.2024;04:00;47
